Location: Mohawk View
(42.7837°N, 73.7885°W)
Time: 12:03:25
(UTC+00:00)

Cosmos 2263 - Pass Details

Date: 17 June 2021
Orbit: 831 x 865 km, 70.9° (Epoch: 26 July)

Event Time Altitude Azimuth Distance (km) Brightness Sun altitude
Rises 06:26:57 0° 336° (NNW) 3,424 8.0 -20.6°
Reaches altitude 10° 06:29:25 10° 337° (NNW) 2,479 7.2 -20.4°
Maximum altitude 06:35:08 81° 65° (ENE) 858 4.2 -20.0°
Enters shadow 06:39:15 19° 152° (SSE) 1,890 5.7 -19.7°
